Back to catalog

HORUS 1

AliveScienceSSO
NORAD 55690·PAYLOAD·🇪🇬 Egypt

Launched Feb 24, 2023 from Jiuquan Satellite Launch Center

Loading…

Next Passes (next 24 hours)

TLE

FreshSource: Space-Track

Epoch: Sep 14, 2026, 13:11 UTC

1 55690U 23025A   26257.54950422  .00004349  00000-0  18551-3 0  9993
2 55690  97.3389 330.2290 0001684 127.2548 232.8843 15.23432591197656

Track HORUS 1 in real time with AllMySat

Download on the App Store